FW4655 Weather Reports


time (UTC)temp
C
wind
direction
speed
KPH
gust
KPH
rain 1hr
cm
rain 24hr
cm
rain mn
cm
humidity
%
barometer
mb
20260503195503 28 56 6.4 14.5 0.00 0.00 0.00 44 1010.9
20260503195006 28 53 8.0 14.5 0.00 0.00 0.00 44 1011.1
20260503194510 27 51 4.8 14.5 0.00 0.00 0.00 45 1011.1
20260503194007 27 14 3.2 14.5 0.00 0.00 0.00 46 1011.2
20260503193506 27 40 4.8 12.9 0.00 0.00 0.00 46 1011.3
20260503193016 27 70 3.2 12.9 0.00 0.00 0.00 47 1011.4
20260503192507 26 30 3.2 12.9 0.00 0.00 0.00 48 1011.4
20260503192011 26 91 6.4 11.3 0.00 0.00 0.00 47 1011.5
20260503191503 26 111 6.4 11.3 0.00 0.00 0.00 47 1011.6
20260503191004 26 99 4.8 12.9 0.00 0.00 0.00 48 1011.6
20260503190504 26 30 6.4 14.5 0.00 0.00 0.00 49 1011.6
20260503190016 25 310 4.8 14.5 0.00 0.00 0.00 49 1011.7
20260503185505 25 11 8.0 14.5 0.00 0.00 0.00 48 1011.7
20260503185003 25 72 6.4 9.7 0.00 0.00 0.00 49 1011.8
20260503184515 25 111 4.8 9.7 0.00 0.00 0.00 49 1011.9
20260503184004 25 85 3.2 14.5 0.00 0.00 0.00 49 1011.9
20260503183512 25 78 6.4 14.5 0.00 0.00 0.00 50 1011.9
20260503183024 24 58 3.2 9.7 0.00 0.00 0.00 51 1012.0
20260503182507 24 97 4.8 9.7 0.00 0.00 0.00 51 1012.1
20260503182009 23 60 3.2 11.3 0.00 0.00 0.00 53 1012.1
20260503181526 23 150 3.2 11.3 0.00 0.00 0.00 54 1012.2
20260503181008 23 65 4.8 12.9 0.00 0.00 0.00 55 1012.3
20260503180510 23 65 4.8 12.9 0.00 0.00 0.00 55 1012.4
20260503180024 22 81 4.8 12.9 0.00 0.00 0.00 56 1012.3
20260503175504 22 114 1.6 9.7 0.00 0.00 0.00 58 1012.4
20260503175007 22 89 4.8 9.7 0.00 0.00 0.00 59 1012.5
20260503174505 22 49 4.8 9.7 0.00 0.00 0.00 59 1012.5
20260503174004 21 102 3.2 11.3 0.00 0.00 0.00 59 1012.6
20260503173507 21 95 4.8 11.3 0.00 0.00 0.00 59 1012.6
20260503173035 21 91 4.8 9.7 0.00 0.00 0.00 59 1012.7
20260503172505 21 43 4.8 9.7 0.00 0.00 0.00 60 1012.7
20260503172007 21 84 4.8 12.9 0.00 0.00 0.00 61 1012.7
20260503171515 21 68 6.4 12.9 0.00 0.00 0.00 62 1012.8
20260503171007 21 143 4.8 11.3 0.00 0.00 0.00 63 1012.8
20260503170507 20 72 1.6 12.9 0.00 0.00 0.00 65 1012.9
20260503151006 13 145 0.0 0.0 0.00 0.00 0.00 92 1013.4
20260503150510 12 145 0.0 0.0 0.00 0.00 0.00 92 1013.4
20260503131007 10 157 0.0 0.0 0.00 0.00 0.00 92 1013.0
20260503130508 10 174 0.0 0.0 0.00 0.00 0.00 91 1012.9
20260503110507 11 136 0.0 0.0 0.00 0.00 0.00 91 1013.3
20260503090511 12 144 0.0 0.0 0.00 0.00 0.00 89 1013.5
20260503081515 12 144 0.0 0.0 0.00 0.00 0.00 87 1013.5
20260503081008 12 144 0.0 0.0 0.00 0.00 0.00 87 1013.5
20260503080505 12 144 0.0 0.0 0.00 0.00 0.00 87 1013.4
20260503072508 13 150 0.0 0.0 0.00 0.00 0.00 86 1013.6
20260503072004 13 150 0.0 0.0 0.00 0.00 0.00 86 1013.6
20260503071505 13 150 0.0 0.0 0.00 0.00 0.00 85 1013.6
20260503071005 13 120 0.0 0.0 0.00 0.00 0.00 85 1013.5
20260503070504 13 120 0.0 0.0 0.00 0.00 0.00 85 1013.6
20260503055004 15 124 0.0 0.0 0.00 0.00 0.00 80 1013.6
20260503054513 15 123 0.0 0.0 0.00 0.00 0.00 80 1013.5
20260503054011 15 123 0.0 0.0 0.00 0.00 0.00 79 1013.4
20260503053507 16 123 0.0 0.0 0.00 0.00 0.00 79 1013.3
20260503053027 16 123 0.0 0.0 0.00 0.00 0.00 78 1013.3
20260503052508 16 123 0.0 0.0 0.00 0.00 0.00 78 1013.3
20260503052010 16 226 0.0 0.0 0.00 0.00 0.00 78 1013.3
20260503051520 16 226 0.0 0.0 0.00 0.00 0.00 77 1013.4
20260503051017 16 229 0.0 0.0 0.00 0.00 0.00 77 1013.5
20260503050506 16 66 0.0 0.0 0.00 0.00 0.00 76 1013.3
20260503050023 16 66 0.0 0.0 0.00 0.00 0.00 76 1013.4
20260503045512 16 75 0.0 1.6 0.00 0.00 0.00 76 1013.5
20260503045010 16 91 0.0 3.2 0.00 0.00 0.00 76 1013.7
20260503044559 16 235 1.6 3.2 0.00 0.00 0.00 76 1013.9
20260503044004 16 116 0.0 1.6 0.00 0.00 0.00 76 1013.7
20260503043507 16 122 0.0 1.6 0.00 0.00 0.00 75 1013.8
20260503043012 17 122 0.0 3.2 0.00 0.00 0.00 75 1013.7
20260503042506 17 147 1.6 3.2 0.00 0.00 0.00 75 1013.7
20260503042007 17 134 1.6 3.2 0.00 0.00 0.00 74 1013.7
20260503041516 17 105 0.0 0.0 0.00 0.00 0.00 73 1013.5
20260503041007 17 105 0.0 0.0 0.00 0.00 0.00 73 1013.4
20260503040514 17 228 0.0 0.0 0.00 0.00 0.00 72 1013.5
20260503040023 17 228 0.0 0.0 0.00 0.00 0.00 72 1013.5
20260503035510 17 228 0.0 0.0 0.00 0.00 0.00 72 1013.5
20260503035010 17 229 0.0 1.6 0.00 0.00 0.00 71 1013.5
20260503034523 17 87 0.0 1.6 0.00 0.00 0.00 71 1013.5
20260503034010 18 118 0.0 1.6 0.00 0.00 0.00 70 1013.5
20260503033509 18 117 0.0 1.6 0.00 0.00 0.00 70 1013.5
20260503033028 18 117 0.0 3.2 0.00 0.00 0.00 69 1013.2
20260503032509 18 229 0.0 3.2 0.00 0.00 0.00 69 1013.3
20260503032010 18 11 0.0 1.6 0.00 0.00 0.00 69 1013.2
20260503031514 18 11 0.0 1.6 0.00 0.00 0.00 69 1013.1
20260503031008 18 11 0.0 1.6 0.00 0.00 0.00 68 1013.0
20260503030508 18 11 0.0 4.8 0.00 0.00 0.00 68 1013.0
20260503030019 18 356 0.0 8.0 0.00 0.00 0.00 68 1013.0
20260503025512 18 315 1.6 9.7 0.00 0.00 0.00 68 1013.1
20260503025011 18 307 3.2 16.1 0.00 0.00 0.00 68 1013.3
20260503024523 18 302 4.8 16.1 0.00 0.00 0.00 68 1013.2
20260503024010 18 305 8.0 14.5 0.00 0.00 0.00 68 1013.4
20260503023511 18 281 4.8 17.7 0.00 0.00 0.00 68 1013.4
20260503023027 18 307 3.2 17.7 0.00 0.00 0.00 67 1013.3
20260503022508 18 281 8.0 17.7 0.00 0.00 0.00 67 1013.3
20260503022013 19 321 4.8 22.5 0.00 0.00 0.00 66 1013.1
20260503021526 19 303 8.0 22.5 0.00 0.00 0.00 66 1013.4
20260503021016 20 319 3.2 22.5 0.00 0.00 0.00 64 1013.2
20260503020517 20 285 9.7 22.5 0.00 0.00 0.00 62 1013.2
20260503020026 21 225 6.4 12.9 0.00 0.00 0.00 60 1012.9
20260503015511 21 270 4.8 11.3 0.00 0.00 0.00 59 1012.5
20260503015010 21 313 3.2 11.3 0.00 0.00 0.00 58 1012.3
20260503014518 22 309 4.8 11.3 0.00 0.00 0.00 57 1012.3
20260503014007 22 299 1.6 4.8 0.00 0.00 0.00 56 1012.2
20260503013508 22 290 1.6 3.2 0.00 0.00 0.00 55 1012.2
20260503013024 22 296 1.6 3.2 0.00 0.00 0.00 55 1012.2
20260503012516 22 291 0.0 3.2 0.00 0.00 0.00 55 1012.2
20260503012015 23 301 1.6 3.2 0.00 0.00 0.00 55 1012.2
20260503011527 23 323 0.0 3.2 0.00 0.00 0.00 54 1012.1
20260503011008 23 13 0.0 4.8 0.00 0.00 0.00 55 1012.1
20260503010510 23 311 1.6 4.8 0.00 0.00 0.00 54 1012.0
20260503010032 23 236 1.6 3.2 0.00 0.00 0.00 54 1012.0
20260503005510 23 198 1.6 3.2 0.00 0.00 0.00 54 1012.0
20260503005013 23 278 0.0 3.2 0.00 0.00 0.00 54 1012.2
20260503004526 23 32 0.0 3.2 0.00 0.00 0.00 54 1012.2
20260503004010 23 39 1.6 4.8 0.00 0.00 0.00 54 1012.2
20260503003511 23 2 3.2 4.8 0.00 0.00 0.00 54 1012.2
20260503003029 22 351 0.0 8.0 0.00 0.00 0.00 54 1012.2
20260503002510 22 27 3.2 9.7 0.00 0.00 0.00 54 1012.2
20260503002011 22 40 3.2 9.7 0.00 0.00 0.00 54 1012.3
20260503001524 22 314 3.2 9.7 0.00 0.00 0.00 54 1012.2
20260503001010 22 77 3.2 9.7 0.00 0.00 0.00 54 1012.3
20260503000509 22 49 3.2 9.7 0.00 0.00 0.00 54 1012.4
20260503000035 22 63 3.2 9.7 0.00 0.00 0.00 54 1012.4
20260502235504 22 360 4.8 11.3 0.00 0.00 0.00 55 1012.4
20260502235005 22 127 4.8 11.3 0.00 0.00 0.00 54 1012.5
20260502234509 22 24 4.8 11.3 0.00 0.00 0.00 55 1012.5
20260502234006 22 92 4.8 11.3 0.00 0.00 0.00 54 1012.6
20260502233504 22 20 4.8 11.3 0.00 0.00 0.00 55 1012.7
20260502233003 22 342 6.4 11.3 0.00 0.00 0.00 55 1012.8
20260502232503 22 49 4.8 9.7 0.00 0.00 0.00 54 1012.8
20260502232003 22 51 3.2 6.4 0.00 0.00 0.00 56 1012.8
20260502231504 21 18 4.8 9.7 0.00 0.00 0.00 56 1012.9
20260502231011 21 49 4.8 9.7 0.00 0.00 0.00 56 1012.9
20260502230504 21 76 1.6 11.3 0.00 0.00 0.00 57 1012.9
20260502230008 21 349 3.2 11.3 0.00 0.00 0.00 57 1013.0
20260502225504 21 310 1.6 9.7 0.00 0.00 0.00 57 1013.1
20260502225007 21 79 4.8 9.7 0.00 0.00 0.00 58 1013.2
20260502224510 21 69 4.8 9.7 0.00 0.00 0.00 57 1013.3
20260502224007 21 349 3.2 9.7 0.00 0.00 0.00 57 1013.3
20260502223504 21 96 4.8 9.7 0.00 0.00 0.00 56 1013.4
20260502223024 21 349 3.2 9.7 0.00 0.00 0.00 56 1013.5
20260502222504 21 72 1.6 9.7 0.00 0.00 0.00 57 1013.6
20260502222007 21 120 4.8 11.3 0.00 0.00 0.00 57 1013.7
20260502221504 21 39 4.8 11.3 0.00 0.00 0.00 57 1013.7
20260502221010 21 63 4.8 8.0 0.00 0.00 0.00 56 1013.8
20260502220504 21 165 1.6 11.3 0.00 0.00 0.00 56 1013.9
20260502220007 21 94 3.2 11.3 0.00 0.00 0.00 57 1014.0
20260502215504 21 68 1.6 11.3 0.00 0.00 0.00 57 1014.0
20260502215008 20 104 1.6 11.3 0.00 0.00 0.00 58 1014.1
20260502214509 20 19 4.8 9.7 0.00 0.00 0.00 58 1014.2
20260502214011 21 19 4.8 9.7 0.00 0.00 0.00 57 1014.3
20260502213507 20 87 3.2 12.9 0.00 0.00 0.00 58 1014.4
20260502213013 20 75 6.4 12.9 0.00 0.00 0.00 59 1014.5
20260502212507 19 151 3.2 11.3 0.00 0.00 0.00 60 1014.6
20260502212008 18 333 4.8 12.9 0.00 0.00 0.00 61 1014.6
20260502211513 18 101 4.8 12.9 0.00 0.00 0.00 61 1014.7
20260502211006 19 53 9.7 12.9 0.00 0.00 0.00 60 1014.8
20260502210513 19 97 1.6 12.9 0.00 0.00 0.00 60 1014.8
20260502210014 18 66 3.2 12.9 0.00 0.00 0.00 61 1014.9
20260502205503 18 44 1.6 9.7 0.00 0.00 0.00 61 1015.0
20260502205005 18 44 3.2 9.7 0.00 0.00 0.00 63 1015.2
20260502204508 17 174 4.8 8.0 0.00 0.00 0.00 62 1015.4
20260502204004 18 307 3.2 6.4 0.00 0.00 0.00 62 1015.5
20260502203505 18 304 1.6 6.4 0.00 0.00 0.00 62 1015.5
20260502203011 17 217 1.6 8.0 0.00 0.00 0.00 65 1015.5
20260502202507 17 323 3.2 8.0 0.00 0.00 0.00 66 1015.6
20260502202004 17 346 4.8 8.0 0.00 0.00 0.00 65 1015.5
20260502201513 17 39 4.8 9.7 0.00 0.00 0.00 65 1015.6
20260502201007 16 322 3.2 9.7 0.00 0.00 0.00 66 1015.7
20260502200507 16 65 3.2 9.7 0.00 0.00 0.00 66 1015.8
20260502200018 16 52 1.6 9.7 0.00 0.00 0.00 67 1015.8